TimeCDT,TemperatureF,Dew PointF,Humidity,Sea Level PressureIn,VisibilityMPH,Wind Direction,Wind SpeedMPH,Gust SpeedMPH,PrecipitationIn,Events,Conditions,WindDirDegrees,DateUTC
12:54 AM,55.0,52.0,89,29.99,10.0,Calm,Calm,-,N/A,,Clear,0,2013-05-08 05:54:00
1:54 AM,54.0,52.0,93,29.98,10.0,Calm,Calm,-,N/A,,Clear,0,2013-05-08 06:54:00
2:54 AM,53.1,51.1,93,29.98,8.0,Calm,Calm,-,N/A,,Clear,0,2013-05-08 07:54:00
3:54 AM,53.1,51.1,93,29.99,8.0,Calm,Calm,-,N/A,,Clear,0,2013-05-08 08:54:00
4:54 AM,52.0,50.0,93,29.99,1.8,Calm,Calm,-,N/A,,Clear,0,2013-05-08 09:54:00
5:04 AM,51.8,50.0,94,30.00,3.0,Calm,Calm,-,N/A,,Clear,0,2013-05-08 10:04:00
5:34 AM,51.8,48.2,88,30.00,2.0,Calm,Calm,-,N/A,,Clear,0,2013-05-08 10:34:00
5:49 AM,51.8,48.2,88,30.01,10.0,Calm,Calm,-,N/A,,Clear,0,2013-05-08 10:49:00
5:54 AM,50.0,48.0,93,30.00,10.0,Calm,Calm,-,N/A,,Clear,0,2013-05-08 10:54:00
5:56 AM,50.0,48.2,94,30.01,0.2,Calm,Calm,-,N/A,Fog,Fog,0,2013-05-08 10:56:00
5:59 AM,50.0,48.2,94,30.01,10.0,Calm,Calm,-,N/A,,Clear,0,2013-05-08 10:59:00
6:54 AM,52.0,51.1,97,30.02,10.0,Calm,Calm,-,N/A,,Clear,0,2013-05-08 11:54:00
7:54 AM,59.0,54.0,83,30.03,10.0,Calm,Calm,-,N/A,,Clear,0,2013-05-08 12:54:00
8:54 AM,64.0,55.9,75,30.04,10.0,Calm,Calm,-,N/A,,Clear,0,2013-05-08 13:54:00
9:54 AM,72.0,57.0,59,30.03,10.0,WNW,4.6,-,N/A,,Scattered Clouds,290,2013-05-08 14:54:00
10:54 AM,75.9,55.0,48,30.03,10.0,Calm,Calm,-,N/A,,Scattered Clouds,0,2013-05-08 15:54:00
11:54 AM,79.0,50.0,36,30.02,10.0,WNW,5.8,-,N/A,,Scattered Clouds,300,2013-05-08 16:54:00
12:54 PM,80.1,45.0,29,30.00,10.0,West,4.6,-,N/A,,Scattered Clouds,260,2013-05-08 17:54:00
1:54 PM,81.0,46.0,29,29.99,10.0,West,4.6,-,N/A,,Mostly Cloudy,270,2013-05-08 18:54:00
2:54 PM,81.0,45.0,28,29.97,10.0,Calm,Calm,-,N/A,,Mostly Cloudy,0,2013-05-08 19:54:00
3:54 PM,82.0,46.0,28,29.96,10.0,Calm,Calm,-,N/A,,Scattered Clouds,0,2013-05-08 20:54:00
4:54 PM,75.9,55.0,48,29.95,10.0,Calm,Calm,-,N/A,,Mostly Cloudy,0,2013-05-08 21:54:00
5:54 PM,73.0,55.0,53,29.97,10.0,West,8.1,-,N/A,,Overcast,270,2013-05-08 22:54:00
6:54 PM,70.0,57.9,65,29.99,10.0,WNW,6.9,-,0.00,Rain,Light Rain,290,2013-05-08 23:54:00
7:54 PM,64.9,61.0,87,29.98,10.0,Calm,Calm,-,0.01,,Overcast,0,2013-05-09 00:54:00
8:54 PM,64.9,60.1,84,29.98,10.0,Calm,Calm,-,0.00,,Overcast,0,2013-05-09 01:54:00
9:54 PM,64.0,61.0,90,29.98,10.0,Calm,Calm,-,N/A,,Overcast,0,2013-05-09 02:54:00
10:54 PM,64.0,61.0,90,29.97,10.0,Calm,Calm,-,N/A,,Overcast,0,2013-05-09 03:54:00
11:54 PM,63.0,60.1,90,29.96,10.0,Calm,Calm,-,N/A,,Overcast,0,2013-05-09 04:54:00